Regional Weather Roundup
Issued by NWS

Home | Current Version | Previous Version | Text Only | Print | Product List | Glossary On
Versions: 1 2 3 4 5 6 7 8 9 10 11 12 13 14 15 16 17 18 19 20 21 22 23 24 25 26 27 28 29 30 31 32 33 34 35 36 37 38 39 40 41 42 43 44 45 46 47 48 49 50
961
ASUS43 KMKX 070300
RWRWI

WISCONSIN REGIONAL WEATHER ROUNDUP
NATIONAL WEATHER SERVICE MILWAUKEE/SULLIVAN WI
900 PM CST TUE DEC 06 2016

NOTE: "FAIR" INDICATES FEW OR NO CLOUDS BELOW 12,000 FEET WITH NO
SIGNIFICANT WEATHER AND/OR OBSTRUCTIONS TO VISIBILITY.

WIZ001-002-006>008-014>016-023>028-070400-
NORTHWEST WISCONSIN

CITY           SKY/WX    TMP DP  RH WIND       PRES   REMARKS
SUPERIOR ARPT  LGT SNOW  22  17  83 SW14G24   29.56R WCI   9
ASHLAND        FLURRIES  22  15  75 SW22G29   29.58S WCI   6
HAYWARD        LGT SNOW  21  13  71 SW14G25   29.62R WCI   8
SIREN          FLURRIES  21  13  70 W18G28    29.66R WCI   6
CUMBERLAND     LGT SNOW  21  14  73 SW16G29   29.67R WCI   7
RICE LAKE      FLURRIES  21  15  75 SW15G24   29.70R WCI   8
CHETEK         FLURRIES  21  15  78 MISG      29.71R
LADYSMITH      FLURRIES  22  16  76 SW16G22   29.69R WCI   8
EAU CLAIRE     FLURRIES  21  14  73 SW16G30   29.76R WCI   7
MENOMONIE      FLURRIES  22  15  76 SW15      29.77R WCI   9
NEW RICHMOND   FLURRIES  21  12  69 SW20G29   29.74R WCI   5
OSCEOLA        FLURRIES  22  14  72 SW20G28   29.77R WCI   7
$$

WIZ003>005-009-010-017-018-070400-
NORTH CENTRAL WISCONSIN

CITY           SKY/WX    TMP DP  RH WIND       PRES   REMARKS
MANITOWISH WTR FLURRIES  19  16  88 SW12G22   29.58S WCI   7
ARBOR VITAE    FLURRIES  22  17  80 SW12G22   29.60R WCI  10
WOODRUFF       FLURRIES  22  17  80 SW12G22   29.60R WCI  10
RHINELANDER    CLOUDY    21  16  81 SW16G26   29.63S WCI   7
EAGLE RIVER    CLOUDY    20  14  76 SW14G22   29.60S WCI   7
LAND O LAKES   FLURRIES  21  15  78 SW9       29.60S WCI  10
PHILLIPS       FLURRIES  20  15  82 SW15G22   29.63R WCI   6
TOMAHAWK       CLOUDY    20  15  79 SW6       29.66S WCI  13
MEDFORD        FLURRIES  20  14  78 SW15G24   29.68S WCI   6
MERRILL        FLURRIES  22  17  81 SW16G25   29.70S WCI   8
$$

WIZ029-030-035-036-043>047-070400-
CENTRAL WISCONSIN

CITY           SKY/WX    TMP DP  RH WIND       PRES   REMARKS
WAUSAU         CLOUDY    22  16  78 W17G26    29.72R WCI   8
MOSINEE        CLOUDY    21  18  86 SW20G26   29.74R WCI   6
MARSHFIELD     FLURRIES  22  15  75 W20G26    29.73R WCI   7
STEVENS POINT  CLOUDY    22  15  74 SW13G22   29.76R WCI  10
WAUPACA        CLOUDY    28  19  71 SW13      29.78R WCI  17
WAUTOMA        CLOUDY    25  17  72 SW16G24   29.80S WCI  12
WISC RAPIDS    CLOUDY    24  16  71 W13       29.78S WCI  12
CAMP DOUGLAS   MOCLDY    25  16  68 SW21      29.80F WCI  10
$$

WIZ011>013-019>022-031-037>040-048>050-070400-
NORTHEAST WISCONSIN

CITY           SKY/WX    TMP DP  RH WIND       PRES   REMARKS
ANTIGO         FLURRIES  20  16  83 W18G26    29.69R WCI   5
SHAWANO        CLOUDY    28  18  67 W13G23    29.75R WCI  17
OCONTO         CLOUDY    26  16  65 W13G21    29.73F WCI  15
STURGEON BAY   CLOUDY    26  18  71 W16G26    29.74R WCI  14
GREEN BAY      CLOUDY    28  20  71 SW14      29.78R WCI  17
MANITOWOC      NOT AVBL
APPLETON       CLOUDY    27  16  63 SW18G25   29.77R WCI  13
CLINTONVILLE   CLOUDY    27  18  69 W12G23    29.76S WCI  16
OSHKOSH        CLOUDY    26  17  68 SW9G20    29.80R WCI  17
$$

WIZ032>034-041-042-053>061-070400-
SOUTHWEST WISCONSIN

CITY           SKY/WX    TMP DP  RH WIND       PRES   REMARKS
LA CROSSE      CLOUDY    26  17  68 W15G24    29.87R WCI  14
SPARTA         CLOUDY    25  18  74 W12G23    29.83S WCI  14
VIROQUA        CLOUDY    23  17  77 W22G35    29.83R WCI   8
BOSCOBEL       CLOUDY    28  16  60 W14G24    29.92R WCI  17
PRAIRIE DU CHI CLOUDY    26  15  64 W10G16    29.93R WCI  16
PLATTEVILLE    CLOUDY    26  19  73 W23       29.91R WCI  11
$$

WIZ056-057-062-063-064-067-068-070400-
SOUTH CENTRAL WISCONSIN

CITY           SKY/WX    TMP DP  RH WIND       PRES   REMARKS
REEDSBURG      CLOUDY    25  17  72 SW14G23   29.85R WCI  13
BARABOO/DELLS  CLOUDY    26  17  71 W13G21    29.84R WCI  14
LONE ROCK      NOT AVBL
MINERAL POINT  CLOUDY    28  19  69 W21G29    29.87R WCI  15
MADISON        CLOUDY    26  17  68 W13G25    29.87R WCI  15
MIDDLETON      NOT AVBL
WATERTOWN      CLOUDY    26  19  75 W10G18    29.86S WCI  16
MONROE         CLOUDY    27  19  74 W23G30    29.89R WCI  12
JANESVILLE     CLOUDY    28  19  69 W23G29    29.90R WCI  14
$$

WIZ051-052-058>065-066-070>072-070400-
SOUTHEAST WISCONSIN

CITY           SKY/WX    TMP DP  RH WIND       PRES   REMARKS
MILWAUKEE      CLOUDY    29  17  61 W15G28    29.88R WCI  18
WAUKESHA       CLOUDY    25  18  74 W13G24    29.88R WCI  13
MILWAUKEE/TIMM NOT AVBL
RACINE         CLOUDY    28  17  63 W15G25    29.90R WCI  16
BURLINGTON     CLOUDY    27  19  72 W12G26    29.90R WCI  17
KENOSHA        CLOUDY    28  19  69 W17G28    29.90R WCI  16
FOND DU LAC    CLOUDY    27  16  63 W9G20     29.83R WCI  18
SHEBOYGAN      CLOUDY    27  17  66 W23G29    29.82R WCI  12
WEST BEND      CLOUDY    27  19  74 W13G24    29.84R WCI  16
JUNEAU         CLOUDY    25  18  73 SW18G26   29.86R WCI  12
$$

LSZ147-162-070400-
LAKE SUPERIOR

STATION/POSITION TIME  TEMP    WIND        PRES    WAVE
                       AIR SEA DIR/SP/G            HT/PER
                 (UTC) (F)     (DEG/KT/KT) (MB)    (FT/S)
DEVILS ISLAND    0100   26     210/ 18/ 25 1001.4F
PORT WING        0050   24     200/ 13/ 21 1001.4S
SAXON HARBOR     0050   24     200/ 11/ 18 1002.0F
$$

LMZ867-665-643>646-070400-
LAKE MICHIGAN

STATION/POSITION TIME  TEMP    WIND        PRES    WAVE
                       AIR SEA DIR/SP/G            HT/PER
                 (UTC) (F)     (DEG/KT/KT) (MB)    (FT/S)
CHAMBERS ISLAND  0140   29     220/ 15/ 21 1005.1R
NORTHPORT PIER   0130   33     260/ 11/ 18 1004.7R
KEWAUNEE LAKESHO 0042   32     280/ 14/ 20 1005.9R
SHEBOYGAN LAKESH 0100   31     250/ 16/ 21 1008.3R
PORT WASHINGTON  0204   28     280/ 17/ 28 1010.8R
MILWAUKEE LAKESH 0050   30     270/ 18/ 23   N/A
KENOSHA   LAKESH 0100   30     260/ 16/ 22 1011.2
$$

TC  - TEMPERATURE IN CELSIUS
VSB - VISIBILITY IN STATUTE MILES
WCI - WIND CHILL INDEX
HX  - HEAT INDEX





USA.gov is the U.S. government's official web portal to all federal, state and local government web resources and services.